Retour au catalogue

STARLINK-36950

ActifCommunicationsVLEO
NORAD 67992·PAYLOAD·🇺🇸 United States

Lancé Feb 27, 2026 depuis Vandenberg Space Force Base

Loading…

Prochains Passages (prochaines 24 heures)

TLE

FraisSource: CelesTrak SupGP

Époque: Sep 15, 2026, 04:10 UTC

1 67992C 26039G   26258.17409722 -.00027662  00000+0 -10017-2 0  2581
2 67992  43.0029  58.9353 0001842 267.9559  13.8997 15.27596876    18

Suivez STARLINK-36950 en temps réel avec AllMySat

Download on the App Store